Radiation Dose at Monitoring Post of Fukushima Daini Nuclear Power Station
Date,Time,MP-1(microSv/h),MP-2(microSv/h),MP-3(microSv/h),MP-4(microSv/h),MP-5(microSv/h),MP-6(microSv/h),MP-7(microSv/h),Wind Direction,Wind Velocity(m/s),Rain
2021/03/27,00:00,0.173,0.153,0.250,0.237,0.236,0.133,0.083,west,3.2,No
2021/03/27,00:10,0.172,0.153,0.251,0.236,0.236,0.134,0.083,west,3.4,No
2021/03/27,00:20,0.173,0.153,0.250,0.238,0.234,0.134,0.083,west,3.9,No
2021/03/27,00:30,0.173,0.152,0.250,0.238,0.236,0.134,0.082,west-northwest,5.6,No
2021/03/27,00:40,0.172,0.153,0.251,0.238,0.235,0.135,0.082,west-northwest,7.5,No
2021/03/27,00:50,0.172,0.154,0.250,0.238,0.236,0.134,0.082,west-northwest,6.0,No
2021/03/27,01:00,0.173,0.153,0.250,0.237,0.234,0.134,0.082,west-northwest,5.5,No
2021/03/27,01:10,0.171,0.153,0.251,0.237,0.235,0.134,0.083,west-northwest,7.2,No
2021/03/27,01:20,0.172,0.154,0.251,0.237,0.235,0.135,0.083,northwest,6.5,No
2021/03/27,01:30,0.172,0.153,0.250,0.236,0.235,0.134,0.083,northwest,6.6,No
2021/03/27,01:40,0.173,0.153,0.251,0.237,0.236,0.134,0.083,northwest,7.9,No
2021/03/27,01:50,0.173,0.154,0.251,0.239,0.236,0.133,0.083,northwest,8.1,No
2021/03/27,02:00,0.173,0.154,0.250,0.238,0.235,0.135,0.083,northwest,8.1,No
2021/03/27,02:10,0.173,0.153,0.250,0.237,0.234,0.134,0.083,northwest,8.4,No
2021/03/27,02:20,0.172,0.153,0.250,0.236,0.236,0.134,0.083,northwest,8.1,No
2021/03/27,02:30,0.172,0.154,0.250,0.236,0.236,0.134,0.083,northwest,5.9,No
2021/03/27,02:40,0.173,0.152,0.250,0.238,0.235,0.134,0.082,northwest,3.5,No
2021/03/27,02:50,0.171,0.153,0.250,0.237,0.236,0.135,0.082,northwest,3.7,No
2021/03/27,03:00,0.172,0.154,0.249,0.237,0.236,0.134,0.083,northwest,2.5,No
2021/03/27,03:10,0.172,0.153,0.250,0.237,0.236,0.134,0.084,northwest,3.2,No
2021/03/27,03:20,0.173,0.154,0.251,0.237,0.235,0.134,0.084,northwest,2.7,No
2021/03/27,03:30,0.173,0.154,0.251,0.238,0.236,0.134,0.083,north-northwest,1.7,No
2021/03/27,03:40,0.172,0.153,0.251,0.238,0.236,0.134,0.083,west-northwest,1.9,No
2021/03/27,03:50,0.172,0.154,0.251,0.237,0.235,0.135,0.083,northeast,1.1,No
2021/03/27,04:00,0.172,0.153,0.250,0.237,0.235,0.135,0.083,north,0.8,No
2021/03/27,04:10,0.172,0.152,0.251,0.236,0.237,0.135,0.083,north-northeast,2.1,No
2021/03/27,04:20,0.172,0.154,0.252,0.238,0.235,0.135,0.083,north,2.4,No
2021/03/27,04:30,0.173,0.153,0.250,0.238,0.236,0.134,0.084,north-northwest,3.0,No
2021/03/27,04:40,0.173,0.153,0.249,0.237,0.236,0.134,0.083,north-northwest,2.2,No
2021/03/27,04:50,0.172,0.152,0.251,0.238,0.237,0.135,0.083,northwest,3.0,No
2021/03/27,05:00,0.172,0.154,0.251,0.236,0.235,0.134,0.083,west,3.0,No
2021/03/27,05:10,0.172,0.153,0.251,0.237,0.236,0.134,0.083,west,2.8,No
2021/03/27,05:20,0.173,0.155,0.250,0.237,0.236,0.135,0.083,west,4.9,No
2021/03/27,05:30,0.172,0.153,0.250,0.237,0.236,0.134,0.084,west,4.6,No
2021/03/27,05:40,0.172,0.153,0.250,0.237,0.236,0.134,0.083,west,3.9,No
2021/03/27,05:50,0.173,0.154,0.250,0.237,0.236,0.135,0.082,west,3.0,No
2021/03/27,06:00,0.174,0.153,0.249,0.237,0.236,0.135,0.083,west-northwest,2.9,No
2021/03/27,06:10,0.172,0.154,0.250,0.236,0.235,0.134,0.083,west-northwest,3.0,No
2021/03/27,06:20,0.172,0.152,0.249,0.238,0.235,0.135,0.084,northwest,5.1,No
2021/03/27,06:30,0.173,0.152,0.250,0.238,0.235,0.134,0.082,northwest,5.5,No
2021/03/27,06:40,0.173,0.152,0.250,0.236,0.236,0.134,0.082,northwest,5.5,No
2021/03/27,06:50,0.173,0.153,0.249,0.238,0.235,0.134,0.083,northwest,6.4,No
2021/03/27,07:00,0.172,0.154,0.251,0.237,0.235,0.135,0.083,northwest,6.0,No
2021/03/27,07:10,0.173,0.153,0.250,0.237,0.235,0.135,0.083,northwest,5.1,No
2021/03/27,07:20,0.173,0.153,0.250,0.237,0.235,0.134,0.084,northwest,3.6,No
2021/03/27,07:30,0.172,0.154,0.249,0.237,0.235,0.134,0.083,north,1.6,No
2021/03/27,07:40,0.173,0.153,0.249,0.238,0.234,0.134,0.083,northwest,0.8,No
2021/03/27,07:50,0.173,0.152,0.249,0.237,0.234,0.134,0.083,west-northwest,1.3,No
2021/03/27,08:00,0.172,0.153,0.250,0.238,0.236,0.136,0.083,north-northwest,1.4,No
2021/03/27,08:10,0.173,0.153,0.249,0.234,0.237,0.133,0.083,north-northwest,2.1,No
2021/03/27,08:20,0.172,0.153,0.249,0.236,0.235,0.134,0.083,north,2.6,No
2021/03/27,08:30,0.171,0.153,0.248,0.234,0.236,0.135,0.084,northeast,2.2,No
2021/03/27,08:40,0.173,0.153,0.249,0.237,0.236,0.135,0.083,north-northeast,1.7,No
2021/03/27,08:50,0.171,0.153,0.249,0.236,0.235,0.134,0.083,northeast,2.5,No
2021/03/27,09:00,0.174,0.152,0.250,0.238,0.236,0.134,0.083,north-northeast,3.0,No
2021/03/27,09:10,0.171,0.152,0.249,0.234,0.235,0.135,0.083,northeast,3.2,No
2021/03/27,09:20,0.171,0.152,0.250,0.237,0.237,0.133,0.083,north-northeast,1.6,No
2021/03/27,09:30,0.171,0.152,0.250,0.235,0.234,0.134,0.082,northeast,3.1,No
2021/03/27,09:40,0.172,0.152,0.250,0.237,0.235,0.133,0.083,northeast,4.4,No
2021/03/27,09:50,0.171,0.153,0.249,0.236,0.233,0.134,0.083,northeast,4.2,No
2021/03/27,10:00,0.172,0.152,0.250,0.236,0.235,0.133,0.083,northeast,5.0,No
2021/03/27,10:10,0.172,0.153,0.249,0.237,0.234,0.135,0.083,northeast,4.4,No
2021/03/27,10:20,0.172,0.154,0.252,0.236,0.237,0.134,0.083,northeast,4.5,No
2021/03/27,10:30,0.171,0.153,0.250,0.239,0.234,0.134,0.083,north-northeast,4.2,No
2021/03/27,10:40,0.172,0.153,0.251,0.237,0.237,0.134,0.083,northeast,3.8,No
2021/03/27,10:50,0.172,0.153,0.249,0.238,0.234,0.133,0.082,northeast,3.3,No
2021/03/27,11:00,0.173,0.153,0.250,0.236,0.235,0.135,0.083,northeast,2.6,No
2021/03/27,11:10,0.171,0.153,0.250,0.238,0.236,0.133,0.082,east-northeast,3.2,No
2021/03/27,11:20,0.172,0.152,0.251,0.238,0.235,0.134,0.083,east-northeast,3.4,No
2021/03/27,11:30,0.171,0.152,0.250,0.237,0.238,0.134,0.083,east,3.1,No
2021/03/27,11:40,0.171,0.153,0.250,0.238,0.233,0.134,0.083,east,2.9,No
2021/03/27,11:50,0.173,0.153,0.251,0.237,0.235,0.134,0.083,east,3.6,No
2021/03/27,12:00,0.171,0.153,0.251,0.239,0.235,0.134,0.084,east,3.9,No
2021/03/27,12:10,0.172,0.152,0.252,0.237,0.237,0.135,0.083,east-southeast,3.9,No
2021/03/27,12:20,0.171,0.153,0.250,0.238,0.236,0.134,0.083,east,3.5,No
2021/03/27,12:30,0.172,0.152,0.250,0.237,0.235,0.134,0.082,east-southeast,3.4,No
2021/03/27,12:40,0.171,0.152,0.251,0.238,0.237,0.135,0.083,east,2.9,No
2021/03/27,12:50,0.172,0.153,0.250,0.236,0.234,0.134,0.083,east,2.9,No
2021/03/27,13:00,0.173,0.153,0.252,0.239,0.237,0.134,0.083,east-southeast,2.1,No
2021/03/27,13:10,0.171,0.154,0.250,0.237,0.235,0.135,0.083,east,2.6,No
2021/03/27,13:20,0.172,0.153,0.252,0.239,0.238,0.135,0.083,east,2.5,No
2021/03/27,13:30,0.171,0.153,0.249,0.236,0.235,0.134,0.083,east-southeast,3.1,No
2021/03/27,13:40,0.172,0.154,0.250,0.240,0.237,0.135,0.082,east-southeast,2.8,No
2021/03/27,13:50,0.171,0.154,0.249,0.238,0.236,0.134,0.083,east-southeast,3.1,No
2021/03/27,14:00,0.173,0.153,0.252,0.239,0.235,0.134,0.083,east,2.5,No
2021/03/27,14:10,0.172,0.154,0.251,0.239,0.237,0.135,0.083,east-southeast,2.4,No
2021/03/27,14:20,0.173,0.153,0.253,0.238,0.236,0.134,0.082,east-southeast,2.3,No
2021/03/27,14:30,0.171,0.154,0.251,0.239,0.236,0.134,0.083,east-southeast,3.1,No
2021/03/27,14:40,0.173,0.153,0.253,0.238,0.237,0.136,0.083,east-southeast,3.1,No
2021/03/27,14:50,0.173,0.154,0.251,0.239,0.237,0.134,0.083,east-southeast,3.1,No
2021/03/27,15:00,0.172,0.154,0.252,0.238,0.234,0.135,0.083,east,2.5,No
2021/03/27,15:10,0.173,0.154,0.251,0.238,0.238,0.135,0.083,east-southeast,2.6,No
2021/03/27,15:20,0.172,0.154,0.252,0.240,0.236,0.135,0.084,east-southeast,2.2,No
2021/03/27,15:30,0.172,0.153,0.253,0.239,0.238,0.135,0.083,east-southeast,2.3,No
2021/03/27,15:40,0.173,0.154,0.253,0.239,0.236,0.135,0.084,east-southeast,2.0,No
2021/03/27,15:50,0.172,0.154,0.253,0.239,0.236,0.135,0.083,east,2.0,No
2021/03/27,16:00,0.173,0.154,0.252,0.239,0.236,0.135,0.083,east,1.0,No
2021/03/27,16:10,0.172,0.153,0.251,0.238,0.238,0.136,0.083,east,0.7,No
2021/03/27,16:20,0.174,0.154,0.251,0.238,0.237,0.135,0.083,east,1.2,No
2021/03/27,16:30,0.174,0.154,0.252,0.238,0.236,0.134,0.083,east,1.7,No
2021/03/27,16:40,0.172,0.153,0.251,0.240,0.238,0.136,0.083,east-northeast,1.4,No
2021/03/27,16:50,0.173,0.153,0.252,0.240,0.238,0.135,0.083,-,CALM,No
2021/03/27,17:00,0.173,0.155,0.252,0.239,0.237,0.136,0.083,east,1.0,No
2021/03/27,17:10,0.172,0.154,0.252,0.239,0.237,0.136,0.084,east-northeast,0.9,No
2021/03/27,17:20,0.173,0.154,0.252,0.239,0.235,0.136,0.083,-,CALM,No
2021/03/27,17:30,0.173,0.153,0.252,0.241,0.237,0.135,0.083,-,CALM,No
2021/03/27,17:40,0.172,0.153,0.251,0.240,0.237,0.135,0.083,west,0.7,No
2021/03/27,17:50,0.173,0.154,0.251,0.238,0.236,0.136,0.082,west-northwest,0.9,No
2021/03/27,18:00,0.172,0.153,0.253,0.238,0.238,0.136,0.083,west-northwest,0.9,No
2021/03/27,18:10,0.173,0.153,0.253,0.238,0.236,0.135,0.083,-,CALM,No
2021/03/27,18:20,0.172,0.153,0.251,0.238,0.237,0.136,0.082,-,CALM,No
2021/03/27,18:30,0.173,0.154,0.252,0.239,0.238,0.135,0.084,-,CALM,No
2021/03/27,18:40,0.172,0.154,0.253,0.239,0.237,0.135,0.083,-,CALM,No
2021/03/27,18:50,0.172,0.153,0.252,0.239,0.236,0.136,0.082,south-southwest,1.6,No
2021/03/27,19:00,0.173,0.154,0.253,0.238,0.237,0.135,0.083,south,2.2,No
2021/03/27,19:10,0.173,0.153,0.252,0.240,0.234,0.135,0.083,south-southwest,2.2,No
2021/03/27,19:20,0.173,0.154,0.253,0.239,0.237,0.135,0.082,south-southwest,2.7,No
2021/03/27,19:30,0.172,0.154,0.251,0.239,0.237,0.135,0.083,south,2.3,No
2021/03/27,19:40,0.173,0.153,0.253,0.239,0.237,0.135,0.083,south,2.9,No
2021/03/27,19:50,0.174,0.154,0.253,0.239,0.238,0.135,0.083,south,3.6,No
2021/03/27,20:00,0.173,0.154,0.252,0.239,0.236,0.135,0.083,south,4.4,No
2021/03/27,20:10,0.174,0.153,0.252,0.238,0.236,0.135,0.083,south,5.8,No
2021/03/27,20:20,0.171,0.154,0.252,0.239,0.237,0.135,0.083,south,5.4,No
2021/03/27,20:30,0.173,0.154,0.252,0.239,0.236,0.135,0.083,south-southeast,1.9,No
2021/03/27,20:40,0.173,0.153,0.252,0.240,0.237,0.136,0.084,south,1.9,No
2021/03/27,20:50,0.172,0.153,0.252,0.239,0.237,0.135,0.083,south-southwest,3.5,No
2021/03/27,21:00,0.172,0.155,0.252,0.239,0.235,0.135,0.083,south,6.7,No
2021/03/27,21:10,0.173,0.154,0.252,0.239,0.237,0.135,0.083,south-southwest,7.2,No
2021/03/27,21:20,0.173,0.155,0.253,0.240,0.237,0.135,0.083,south,6.6,No
2021/03/27,21:30,0.173,0.154,0.252,0.239,0.237,0.135,0.084,south,6.4,No
2021/03/27,21:40,0.174,0.154,0.252,0.239,0.237,0.136,0.083,south,4.6,No
2021/03/27,21:50,0.172,0.154,0.253,0.241,0.236,0.135,0.084,south-southwest,4.7,No
2021/03/27,22:00,0.174,0.154,0.253,0.239,0.237,0.135,0.083,south,3.5,No
2021/03/27,22:10,0.173,0.154,0.251,0.239,0.236,0.135,0.084,south,3.1,No
2021/03/27,22:20,0.172,0.154,0.252,0.240,0.236,0.135,0.084,south,2.9,No
2021/03/27,22:30,0.173,0.155,0.251,0.238,0.236,0.135,0.083,south-southwest,3.9,No
2021/03/27,22:40,0.173,0.154,0.252,0.239,0.237,0.136,0.083,south-southwest,4.7,No
2021/03/27,22:50,0.172,0.153,0.252,0.239,0.237,0.135,0.083,south-southwest,5.5,No
2021/03/27,23:00,0.172,0.154,0.251,0.239,0.236,0.135,0.083,south,5.1,No
2021/03/27,23:10,0.173,0.154,0.252,0.238,0.236,0.135,0.083,south,4.8,No
2021/03/27,23:20,0.173,0.155,0.254,0.239,0.236,0.135,0.083,south,4.6,No
2021/03/27,23:30,0.174,0.154,0.251,0.240,0.236,0.135,0.084,south,4.5,No
2021/03/27,23:40,0.174,0.154,0.252,0.238,0.235,0.136,0.082,south,5.2,No
2021/03/27,23:50,0.173,0.154,0.251,0.240,0.235,0.135,0.083,south,5.4,No
